Regional Weather Roundup
Issued by NWS

Home | Current Version | Previous Version | Graphics & Text | Print | Product List | Glossary On
Versions: 1 2 3 4 5 6 7 8 9 10 11 12 13 14 15 16 17 18 19 20 21 22 23 24 25 26 27 28 29 30 31 32 33 34 35 36 37 38 39 40 41 42 43 44 45 46 47 48 49 50
000
ASUS43 KOAX 180310
RWRNE

WEATHER ROUNDUP FOR NEBRASKA
NATIONAL WEATHER SERVICE OMAHA NE
900 PM CST WED DEC 17 2014

NOTES: SATELLITE DATA IS BEING USED TO AUGMENT CLOUD COVER ABOVE
       12000 FEET.
       "FAIR" INDICATES FEW OR NO CLOUDS BELOW 12,000 FEET WITH NO
       SIGNIFICANT WEATHER AND/OR OBSTRUCTIONS TO VISIBILITY.

  * THESE STATIONS DO NOT REPORT WEATHER SUCH AS RAIN...SNOW OR FOG.

NEZ001>004-019>022-054>056-180400-
NEBRASKA PANHANDLE

CITY           SKY/WX    TMP DP  RH WIND       PRES   REMARKS
SCOTTSBLUFF    FOG       20  19  96 E3        30.00S VSB 1/4
ALLIANCE       FOG       22  20  92 S7        29.99S VSB 1/2 WCI  13
CHADRON        FOG       17  14  88 SW5       30.03R VSB 1/2 WCI  10
KIMBALL        PTCLDY    23  21  92 W6        29.94S WCI  15
SIDNEY         CLOUDY    22  19  89 SW10      29.99S FOG     WCI  11
$$

NEZ057>060-069>072-079>082-180400-
SOUTHWEST NEBRASKA

CITY           SKY/WX    TMP DP  RH WIND       PRES   REMARKS
NORTH PLATTE   CLOUDY    22  20  92 S6        30.11S WCI  14
IMPERIAL       CLOUDY    24  20  84 S9        30.07S FOG     WCI  14
LEXINGTON      CLOUDY    25  23  91 SE7       30.13F WCI  17
MCCOOK         CLOUDY    25  23  92 E6        30.12S FOG     WCI  18
OGALLALA       CLOUDY    23  22  96 S3        30.07R
$$

NEZ005>010-023>029-035>040-094-180400-
NORTH CENTRAL NEBRASKA

CITY           SKY/WX    TMP DP  RH WIND       PRES   REMARKS
VALENTINE      CLOUDY    22  20  92 S12       30.10S WCI  10
AINSWORTH      CLOUDY    20  19  96 S5        30.12R FOG     WCI  14
BROKEN BOW     CLOUDY    23  21  92 S7        30.13S WCI  15
O`NEILL        CLOUDY    22  20  93 S3        30.19S
ORD            CLOUDY    24  21  88 SE5       30.17R WCI  18
THEDFORD       CLOUDY    23  22  96 S6        30.10S FOG     WCI  16
$$

NEZ041-046>049-061>064-073>077-083>087-180400-
SOUTH CENTRAL NEBRASKA

CITY           SKY/WX    TMP DP  RH WIND       PRES   REMARKS
GRAND ISLAND   CLOUDY    24  18  77 SE7       30.20S WCI  16
AURORA         CLOUDY    25  19  78 SE9       30.20S WCI  15
HASTINGS       CLOUDY    25  18  74 SE5       30.17F WCI  19
HEBRON         CLOUDY    28  19  69 E5        30.22F WCI  23
HOLDREGE       CLOUDY    24  21  87 E8        30.14F WCI  16
KEARNEY *      CLOUDY    25  19  80 E8        30.16F WCI  16
YORK           CLOUDY    25 N/A N/A SE8       30.22S WCI  16
$$

NEZ011>018-030>034-042>045-180400-
NORTHEAST NEBRASKA

CITY           SKY/WX    TMP DP  RH WIND       PRES   REMARKS
NORFOLK        CLOUDY    25  17  72 SE8       30.22R WCI  16
ALBION         CLOUDY    24  18  77 SE7       30.20S WCI  16
BLAIR          CLOUDY    28  21  76 E3        30.24R
COLUMBUS *     CLOUDY    25  14  63 SE8       30.24S WCI  16
FREMONT        CLOUDY    28  20  74 E6        30.26R WCI  21
TEKAMAH        CLOUDY    28  19  69 E7        30.27R WCI  21
WAYNE          CLOUDY    24  18  78 E7        30.25R WCI  16
$$

NEZ050>053-065>068-078-088>093-180400-
SOUTHEAST NEBRASKA

CITY           SKY/WX    TMP DP  RH WIND       PRES   REMARKS
LINCOLN        CLOUDY    26  17  68 SE8       30.27R WCI  18
OMAHA EPPLEY   CLOUDY    28  19  69 SE5       30.28R WCI  23
BEATRICE       CLOUDY    27  20  76 E7        30.24S WCI  19
FALLS CITY     CLOUDY    29  22  75 E5        30.26S WCI  24
NEBRASKA CITY  CLOUDY    27  18  69 CALM      30.26S
PLATTSMOUTH    CLOUDY    27  19  71 E5        30.26S WCI  22
$$

NEZ044-045-051>053-067-180400-
OMAHA AREA

CITY           SKY/WX    TMP DP  RH WIND       PRES   REMARKS
OMAHA EPPLEY   CLOUDY    28  19  69 SE5       30.28R WCI  23
BLAIR          CLOUDY    28  21  76 E3        30.24R
FREMONT        CLOUDY    28  20  74 E6        30.26R WCI  21
MILLARD        CLOUDY    28  18  64 E3        30.26S
OFFUTT AFB     CLOUDY    28  19  68 E6        30.26R WCI  21
PLATTSMOUTH    CLOUDY    27  19  71 E5        30.26S WCI  22
WAHOO          CLOUDY    27  18  68 CALM      30.25S
$$



USA.gov is the U.S. government's official web portal to all federal, state and local government web resources and services.